QFA610 YMML-YSSY

Flight info

Callsign QFA610
Flight time 1h 1m
Altitude 33000
Route DOSEL2/34 DOSEL Y59 RIVET RIVET4 YSSY/34L
Aircraft B77W/H-SDE1E2E3FGHIJ2J3J4J5M1RWXY/LB1D1

Departure

Time 2026-05-04 07:34
Airport Melbourne Airport (YMML)

Arrival

Time 2026-05-04 08:35
Airport Sydney Kingsford Smith International Airport (YSSY)
Time Latitude Longitude Altitude Speed Heading
2026-05-04 07:01 -37.66724 144.84640 403 ft 0 kts 172°
2026-05-04 07:23 -37.66723 144.84640 0 ft 2 kts 172°
2026-05-04 07:23 -37.66704 144.84636 205 ft 3 kts 172°
2026-05-04 07:23 -37.66684 144.84633 401 ft 3 kts 175°
2026-05-04 07:24 -37.66668 144.84632 403 ft 2 kts 184°
2026-05-04 07:24 -37.66656 144.84635 398 ft 1 kts 226°
2026-05-04 07:24 -37.66651 144.84643 403 ft 1 kts 248°
2026-05-04 07:24 -37.66649 144.84653 401 ft 1 kts 258°
2026-05-04 07:25 -37.66647 144.84662 402 ft 1 kts 260°
2026-05-04 07:26 -37.66663 144.84521 367 ft 8 kts 262°
2026-05-04 07:27 -37.66672 144.84443 403 ft 10 kts 262°
2026-05-04 07:27 -37.66683 144.84344 402 ft 12 kts 261°
2026-05-04 07:27 -37.66697 144.84244 400 ft 12 kts 253°
2026-05-04 07:27 -37.66759 144.84191 395 ft 12 kts 178°
2026-05-04 07:28 -37.66847 144.84204 395 ft 12 kts 172°
2026-05-04 07:28 -37.66862 144.84207 392 ft 1 kts 172°
2026-05-04 07:28 -37.66890 144.84212 393 ft 6 kts 172°
2026-05-04 07:28 -37.66937 144.84221 392 ft 7 kts 171°
2026-05-04 07:29 -37.66991 144.84231 391 ft 8 kts 171°
2026-05-04 07:29 -37.67047 144.84242 390 ft 8 kts 171°
2026-05-04 07:29 -37.67106 144.84254 388 ft 9 kts 172°
2026-05-04 07:29 -37.67167 144.84264 387 ft 9 kts 172°
2026-05-04 07:30 -37.67229 144.84275 386 ft 9 kts 172°
2026-05-04 07:30 -37.67291 144.84286 385 ft 9 kts 171°
2026-05-04 07:30 -37.67369 144.84301 383 ft 16 kts 171°
2026-05-04 07:30 -37.67496 144.84325 380 ft 19 kts 171°
2026-05-04 07:31 -37.67626 144.84350 378 ft 19 kts 171°
2026-05-04 07:31 -37.67730 144.84370 376 ft 12 kts 172°
2026-05-04 07:33 -37.67875 144.84095 364 ft 17 kts 265°
2026-05-04 07:33 -37.67748 144.83940 366 ft 39 kts 346°
2026-05-04 07:33 -37.67228 144.83845 383 ft 117 kts 352°
2026-05-04 07:33 -37.66152 144.83649 433 ft 192 kts 353°
2026-05-04 07:34 -37.64791 144.83414 1356 ft 205 kts 353°
2026-05-04 07:34 -37.63327 144.83166 1864 ft 221 kts 356°
2026-05-04 07:34 -37.61788 144.83483 2170 ft 231 kts 29°
2026-05-04 07:34 -37.60672 144.84986 2411 ft 248 kts 68°
2026-05-04 07:35 -37.60232 144.87111 2780 ft 252 kts 66°
2026-05-04 07:35 -37.59206 144.88784 3405 ft 241 kts 30°
2026-05-04 07:35 -37.57582 144.89299 3950 ft 250 kts 356°
2026-05-04 07:35 -37.55947 144.88452 4405 ft 269 kts 323°
2026-05-04 07:36 -37.54798 144.86488 4707 ft 287 kts 301°
2026-05-04 07:36 -37.53576 144.84529 4954 ft 288 kts 332°
2026-05-04 07:38 -37.44211 144.94220 7323 ft 316 kts 56°
2026-05-04 07:38 -37.42818 144.96460 7495 ft 334 kts 55°
2026-05-04 07:38 -37.41348 144.98849 7648 ft 355 kts 53°
2026-05-04 07:38 -37.39797 145.01379 7812 ft 374 kts 51°
2026-05-04 07:39 -37.38174 145.04030 8030 ft 391 kts 50°
2026-05-04 07:39 -37.36522 145.06736 8619 ft 395 kts 49°
2026-05-04 07:39 -37.34829 145.09514 9406 ft 394 kts 47°
2026-05-04 07:39 -37.33205 145.12187 10340 ft 386 kts 46°
2026-05-04 07:40 -37.31586 145.14850 11315 ft 380 kts 45°
2026-05-04 07:40 -37.29995 145.17466 12443 ft 371 kts 44°
2026-05-04 07:40 -37.28438 145.20018 13421 ft 369 kts 44°
2026-05-04 07:40 -37.26856 145.22597 14028 ft 376 kts 44°
2026-05-04 07:41 -37.25240 145.25226 14600 ft 383 kts 44°
2026-05-04 07:41 -37.23611 145.27884 15302 ft 386 kts 44°
2026-05-04 07:41 -37.21971 145.30565 15979 ft 389 kts 44°
2026-05-04 07:41 -37.20315 145.33272 16643 ft 392 kts 43°
2026-05-04 07:42 -37.18648 145.35993 17267 ft 396 kts 43°
2026-05-04 07:42 -37.16947 145.38758 17787 ft 403 kts 43°
2026-05-04 07:42 -37.15247 145.41576 18341 ft 409 kts 44°
2026-05-04 07:42 -37.13570 145.44471 18934 ft 413 kts 44°
2026-05-04 07:43 -37.11907 145.47384 19403 ft 419 kts 44°
2026-05-04 07:43 -37.10211 145.50370 20043 ft 421 kts 44°
2026-05-04 07:43 -37.08505 145.53372 20551 ft 425 kts 44°
2026-05-04 07:43 -37.06759 145.56421 20770 ft 436 kts 44°
2026-05-04 07:44 -37.04974 145.59525 21068 ft 443 kts 44°
2026-05-04 07:44 -37.03172 145.62664 21630 ft 444 kts 44°
2026-05-04 07:44 -37.01365 145.65813 22151 ft 446 kts 44°
2026-05-04 07:44 -36.99551 145.68966 22633 ft 448 kts 44°
2026-05-04 07:45 -36.97724 145.72135 23073 ft 450 kts 44°
2026-05-04 07:45 -36.95887 145.75316 23538 ft 452 kts 44°
2026-05-04 07:45 -36.94042 145.78505 23984 ft 454 kts 44°
2026-05-04 07:45 -36.92205 145.81674 24332 ft 457 kts 44°
2026-05-04 07:46 -36.90315 145.84935 24729 ft 459 kts 44°
2026-05-04 07:46 -36.88437 145.88172 25077 ft 462 kts 44°
2026-05-04 07:46 -36.86546 145.91427 25400 ft 465 kts 44°
2026-05-04 07:46 -36.84635 145.94712 25711 ft 468 kts 44°
2026-05-04 07:47 -36.82739 145.97969 25910 ft 473 kts 44°
2026-05-04 07:47 -36.80759 146.01364 26045 ft 479 kts 44°
2026-05-04 07:47 -36.78818 146.04691 26291 ft 483 kts 44°
2026-05-04 07:49 -36.64798 146.28659 27914 ft 497 kts 44°
2026-05-04 07:49 -36.62737 146.32159 27978 ft 501 kts 44°
2026-05-04 07:49 -36.60682 146.35653 28314 ft 498 kts 44°
2026-05-04 07:50 -36.58644 146.39127 28721 ft 495 kts 44°
2026-05-04 07:50 -36.56634 146.42545 28976 ft 495 kts 44°
2026-05-04 07:50 -36.54592 146.46005 29142 ft 497 kts 44°
2026-05-04 07:50 -36.52545 146.49469 29376 ft 497 kts 44°
2026-05-04 07:51 -36.50498 146.52930 29656 ft 496 kts 44°
2026-05-04 07:51 -36.48521 146.56270 29889 ft 496 kts 44°
2026-05-04 07:51 -36.46476 146.59722 30130 ft 496 kts 43°
2026-05-04 07:51 -36.44430 146.63172 30384 ft 495 kts 43°
2026-05-04 07:52 -36.42394 146.66601 30645 ft 493 kts 44°
2026-05-04 07:52 -36.40390 146.69984 31392 ft 480 kts 46°
2026-05-04 07:52 -36.38407 146.73323 31532 ft 484 kts 46°
2026-05-04 07:52 -36.36393 146.76695 31560 ft 488 kts 46°
2026-05-04 07:54 -36.19975 147.04143 32227 ft 502 kts 46°
2026-05-04 07:55 -36.17889 147.07615 32335 ft 502 kts 46°
2026-05-04 07:55 -36.15803 147.11082 32438 ft 502 kts 46°
2026-05-04 07:55 -36.11625 147.18016 32618 ft 504 kts 45°
2026-05-04 07:56 -36.07423 147.24980 32822 ft 505 kts 45°
2026-05-04 07:56 -36.03209 147.31953 32907 ft 505 kts 46°
2026-05-04 07:57 -35.99024 147.38868 32950 ft 507 kts 47°
2026-05-04 07:57 -35.94788 147.45849 33048 ft 509 kts 47°
2026-05-04 07:58 -35.90524 147.52860 33038 ft 513 kts 47°
2026-05-04 07:58 -35.86222 147.59927 33059 ft 517 kts 47°
2026-05-04 07:59 -35.81886 147.67026 33060 ft 519 kts 47°
2026-05-04 07:59 -35.77525 147.74147 33055 ft 521 kts 47°
2026-05-04 08:00 -35.73143 147.81290 33042 ft 524 kts 47°
2026-05-04 08:02 -35.55455 148.09988 33027 ft 530 kts 46°
2026-05-04 08:02 -35.50999 148.17177 33057 ft 534 kts 46°
2026-05-04 08:03 -35.46483 148.24454 33048 ft 538 kts 46°
2026-05-04 08:03 -35.42703 148.30534 33062 ft 540 kts 46°
2026-05-04 08:04 -35.38120 148.37871 33060 ft 543 kts 46°
2026-05-04 08:04 -35.33509 148.45234 33049 ft 545 kts 46°
2026-05-04 08:05 -35.28888 148.52603 33039 ft 547 kts 46°
2026-05-04 08:05 -35.24245 148.59995 33057 ft 548 kts 45°
2026-05-04 08:06 -35.19586 148.67394 33041 ft 548 kts 45°
2026-05-04 08:06 -35.14930 148.74775 33047 ft 548 kts 45°
2026-05-04 08:08 -34.96409 149.03988 33029 ft 531 kts 45°
2026-05-04 08:10 -34.78919 149.31347 29784 ft 498 kts 46°
2026-05-04 08:11 -34.76796 149.34654 29263 ft 494 kts 46°
2026-05-04 08:11 -34.72828 149.41461 28212 ft 494 kts 55°
2026-05-04 08:11 -34.71219 149.45130 27710 ft 491 kts 57°
2026-05-04 08:12 -34.69650 149.48815 27204 ft 488 kts 57°
2026-05-04 08:12 -34.68098 149.52454 26699 ft 484 kts 59°
2026-05-04 08:12 -34.66543 149.56072 26201 ft 480 kts 59°
2026-05-04 08:12 -34.64994 149.59644 25697 ft 476 kts 59°
2026-05-04 08:13 -34.63449 149.63182 25199 ft 472 kts 59°
2026-05-04 08:13 -34.61912 149.66691 24700 ft 469 kts 59°
2026-05-04 08:13 -34.60386 149.70164 24210 ft 465 kts 59°
2026-05-04 08:13 -34.58870 149.73615 23729 ft 462 kts 59°
2026-05-04 08:14 -34.57365 149.77037 23238 ft 458 kts 59°
2026-05-04 08:14 -34.55869 149.80438 22758 ft 455 kts 59°
2026-05-04 08:14 -34.54405 149.83764 22291 ft 451 kts 59°
2026-05-04 08:16 -34.44336 150.06552 19003 ft 429 kts 58°
2026-05-04 08:16 -34.42929 150.09724 18527 ft 426 kts 58°
2026-05-04 08:16 -34.41543 150.12850 18062 ft 414 kts 58°
2026-05-04 08:17 -34.40206 150.15869 17599 ft 400 kts 58°
2026-05-04 08:17 -34.38913 150.18780 17166 ft 387 kts 58°
2026-05-04 08:17 -34.37658 150.21603 16749 ft 375 kts 58°
2026-05-04 08:17 -34.36437 150.24345 16328 ft 363 kts 58°
2026-05-04 08:19 -34.28093 150.43018 13545 ft 351 kts 58°
2026-05-04 08:19 -34.26963 150.45548 13151 ft 339 kts 58°
2026-05-04 08:20 -34.25859 150.48016 12785 ft 329 kts 58°
2026-05-04 08:20 -34.24777 150.50430 12435 ft 324 kts 58°
2026-05-04 08:20 -34.23700 150.52830 12092 ft 326 kts 58°
2026-05-04 08:20 -34.22595 150.55286 11752 ft 340 kts 58°
2026-05-04 08:21 -34.21451 150.57832 11344 ft 346 kts 59°
2026-05-04 08:21 -34.20318 150.60363 10963 ft 337 kts 59°
2026-05-04 08:21 -34.19232 150.62788 10805 ft 318 kts 59°
2026-05-04 08:21 -34.18211 150.65062 10377 ft 310 kts 59°
2026-05-04 08:22 -34.17168 150.67376 9573 ft 316 kts 59°
2026-05-04 08:22 -34.16134 150.69672 9252 ft 305 kts 59°
2026-05-04 08:24 -34.09734 150.83866 7601 ft 266 kts 59°
2026-05-04 08:24 -34.08856 150.85819 7340 ft 265 kts 59°
2026-05-04 08:24 -34.07977 150.87775 7087 ft 264 kts 59°
2026-05-04 08:24 -34.07104 150.89715 6838 ft 263 kts 59°
2026-05-04 08:25 -34.06258 150.91592 6593 ft 262 kts 59°
2026-05-04 08:25 -34.05398 150.93500 6341 ft 261 kts 59°
2026-05-04 08:25 -34.04531 150.95422 6116 ft 259 kts 59°
2026-05-04 08:25 -34.03680 150.97307 6066 ft 255 kts 59°
2026-05-04 08:26 -34.03022 150.99292 5999 ft 260 kts 82°
2026-05-04 08:27 -34.12547 151.08914 4305 ft 285 kts 171°
2026-05-04 08:28 -34.14494 151.09414 3932 ft 286 kts 171°
2026-05-04 08:28 -34.16438 151.09915 3572 ft 287 kts 171°
2026-05-04 08:28 -34.18399 151.10422 3198 ft 288 kts 171°
2026-05-04 08:28 -34.20340 151.10955 2983 ft 279 kts 163°
2026-05-04 08:29 -34.21980 151.12115 3017 ft 276 kts 133°
2026-05-04 08:29 -34.22988 151.14041 3005 ft 272 kts 103°
2026-05-04 08:29 -34.23137 151.16274 3014 ft 264 kts 73°
2026-05-04 08:31 -34.14052 151.22684 2993 ft 199 kts 344°
2026-05-04 08:33 -34.04955 151.20287 1714 ft 201 kts 346°
2026-05-04 08:33 -34.03592 151.19931 1455 ft 200 kts 346°
2026-05-04 08:35 -33.95224 151.17753 34 ft 69 kts 348°
2026-05-04 08:35 -33.94817 151.17649 34 ft 54 kts 348°
2026-05-04 08:35 -33.94489 151.17510 34 ft 43 kts 329°
2026-05-04 08:35 -33.94321 151.17343 35 ft 21 kts 316°